Rbgn^[z[y[W
メイン
   新天体発見情報
     Comet C/2021 R2 (PANSTARRS)
投稿するにはまず登録を

フラット表示 前のトピック | 次のトピック
投稿者 スレッド
佐藤裕久
投稿日時: 2021-9-27 13:43
モデレータ
登録日: 2005-6-12
居住地: 日本
投稿: 2629
オンライン
Comet C/2021 R2 (PANSTARRS)

R. Weryk (西オンタリオ大学,物理および天文学科)の通報によると、9月5.34-5.37日UT、ハワイ
HaleakalaにあるPan-STARRS1 1.8-m Ritchey-Chretien反射望遠鏡で得た45秒3枚のw-バンドサーベイ
画像から彗星を発見した。
発見画像は1".7の不十分なシーイングで2".5(半値全幅:FWHM)の拡散したコマが見えたが尾はない。
8"のまっすぐな尾が見えた。
WerykとR. Wainscoatは、9月6.45日UT、Mauna Keaにある3.6-m Canada-France-Hawaii望遠鏡で
得た60秒3枚のgri-バンドフォローアップ露出から、明らかに彗星で、0".7のシーイングにおいて
1".0(FWHM)の大変集光したコマが見え、p.a.105°に30"のまっすぐな尾があった。
小惑星センターのPCCP webpageに公表後、M. Jaeger (Vienna, オーストリア)は、2021年9月4.95-
4.97日、Stixendorfの30-cm 反射望遠鏡で得た180秒露出18枚のスタックでは、20.4等の中央集光で
ほとんど恒星状に見え、p.a. 116°に15"の非常にかすかな尾があると"ICQ Comet Observations" 
Facebook page に報告した。

彗星機能の報告は次の通り、

OC   Date        Reporter           Coma    Tail    PA          Exposures
A71  2021-09-05  M. Jaeger          6"       15"    116
157  2021-09-05  R. Haver           5"                           40x90s
568  2021-09-06  R. Weryk           0".4     30"    105           3x60s

発見位置は次のとおり、

     2021 UT             R.A. (2000) Decl.       Mag.
     Aug. 28.57899   23 38 31.89   +18 39 31.6   20.6
          28.57899   23 38 31.89   +18 39 31.6   20.6
          28.59064   23 38 31.28   +18 39 31.1   20.7
          28.59064   23 38 31.28   +18 39 31.1   20.7
          28.61390   23 38 30.05   +18 39 30.2   20.7
          28.61390   23 38 30.05   +18 39 30.2   20.7
     Sept. 3.51479   23 33 17.85   +18 34 38.6   20.4
           3.51479   23 33 17.85   +18 34 38.6   20.4
           3.52750   23 33 17.17   +18 34 38.0   20.4
           3.52750   23 33 17.17   +18 34 38.0   20.4
           3.54022   23 33 16.45   +18 34 37.4   20.4
           3.54022   23 33 16.45   +18 34 37.4   20.4
           3.55298   23 33 15.77   +18 34 36.4   20.4
           3.55298   23 33 15.77   +18 34 36.4   20.4
           5.33882   23 31 39.70   +18 32 32.5   20.4
           5.36205   23 31 38.43   +18 32 30.7   20.4
           5.37370   23 31 37.78   +18 32 30.0   20.3
           5.59594   23 31 25.65   +18 32 13.2   20.9
           5.59679   23 31 25.60   +18 32 13.2   20.9

MPCの準放物線軌道要素、位置推算表は次のとおり、

Orbital elements:
    C/2021 R2 (PANSTARRS)                                                       
Epoch 2021 Dec. 12.0 TT = JDT 2459560.5                                         
T 2021 Dec. 31.68341 TT                                 Rudenko                 
q   7.3083354            (2000.0)            P               Q                  
z  -0.0000048      Peri.   32.78587     +0.91341454     -0.35439890             
 +/-0.0000000      Node    16.29800     -0.27137690     -0.89680839             
e   1.0000353      Incl.  134.49232     +0.30336191     +0.26483227             
From 38 observations 2021 Aug. 28-Sept. 7, mean residual 0".5.                  
                                                                                
    C/2021 R2 (PANSTARRS)                                                       
Epoch 2021 July 5.0 TT = JDT 2459400.5                                          
T 2021 Dec. 31.03299 TT                                 Rudenko                 
q   7.3086726            (2000.0)            P               Q                  
z  +0.0000180      Peri.   32.73740     +0.91369948     -0.35367615             
 +/-0.0000000      Node    16.29497     -0.27064901     -0.89699939             
e   0.9998683      Incl.  134.48821     +0.30315403     +0.26515143             
From 38 observations 2021 Aug. 28-Sept. 7, mean residual 0".5.                  
                                                                                
Ephemeris:
Date    TT    R. A. (2000) Decl.     Delta      r    Elong.  Phase   m1
2021 08 09    23 54 12.2 +18 34 13   6.7003  7.3658   127.8     6.2  20.3
...
2021 08 24    23 42 26.8 +18 41 12   6.5257  7.3546   142.6     4.8  20.2
...
2021 09 01    23 35 32.1 +18 37 05   6.4594  7.3491   149.8     4.0  20.2
...
2021 09 07    23 30 09.7 +18 30 23   6.4236  7.3452   154.4     3.4  20.2
2021 09 08    23 29 15.3 +18 28 58   6.4188  7.3446   155.0     3.3  20.2
2021 09 09    23 28 20.8 +18 27 28   6.4144  7.3439   155.7     3.2  20.2
...
2021 09 15    23 22 52.3 +18 16 50   6.3954  7.3403   158.5     2.9  20.2
...
2021 09 23    23 15 35.5 +17 58 32   6.3902  7.3357   159.0     2.8  20.2
...
2021 10 08    23 02 32.4 +17 14 10   6.4421  7.3281   150.5     3.9  20.2

(MPEC 2021-R151、CBET 5031)

フラット表示 前のトピック | 次のトピック

題名 投稿者 日時
 » Comet C/2021 R2 (PANSTARRS) 佐藤裕久 2021-9-27 13:43

投稿するにはまず登録を
 
© 1999 Tsutomu Seki.